General Aviation Weather

Text Reports

Enter one or more of the following location identifiers separated by a space:

Zip Code, Four-Character ICAO or Three-Character IATA airport codes.

METAR - Aviation Routine Weather Report
KOXB - Ocean City, Maryland
Updated at 2:53 AM GMT on February 12, 2016 (9:53 PM EST):
METAR KOXB 120253Z AUTO 32008KT 10SM CLR M06/M16 A3029 RMK AO2 SLP257 T10561156 51025 TSNO
TAF - Terminal Area Forecast
KOXB - Ocean City, Maryland
Updated at 2:53 AM GMT on February 12, 2016 (9:53 PM EST):
No TAF is currently available for this location.
Decoded:
No decoded TAF is available.
PIREP - Pilot Weather Report
KOXB - Ocean City, Maryland
Updated at 2:53 AM GMT on February 12, 2016 (9:53 PM EST):
No PIREP is currently available for this location.
AIRMET - Airmens Meteorological Information
KOXB - Ocean City, Maryland
Updated at 2:53 AM GMT on February 12, 2016 (9:53 PM EST):
No AIRMET is currently available for this location.
SIGMET - Significant Meteorological Information
KOXB - Ocean City, Maryland
Updated at 2:53 AM GMT on February 12, 2016 (9:53 PM EST):
No SIGMET is currently available for this location.
NOTAM - Notice to Airmen
KOXB - Ocean City, Maryland
Updated at 2:53 AM GMT on February 12, 2016 (9:53 PM EST):
No NOTAM is currently available for this location.
Forecast Area
KOXB - Ocean City, Maryland
Updated at 2:53 AM GMT on February 12, 2016 (9:53 PM EST):
No NOTAM is currently available for this location.
Aviation Weather Maps